Погода в Берездове

Украина / Хмельницкая область     50°27′20″N   27°07′09″E
темп.,
°C
ветер,
м/с
пор.,
м/с
влажн.,
%
обл.,
%
осадки,
мм/ч
давл.,
гПа
погр.,
м
8 мая, сб
сб800:00+8з3794100 0.0 1007143
03:00+7зсз589695 0.6 1008324
06:00+5сз51293100 2.3 1009767
09:00+6зсз71088100 2.7 10121059
12:00+4зсз7995100 0.5 1015879
15:00+8сз8127285 0.6 10161407
18:00+8зсз797270 0.6 10171294
21:00+4зсз47875 0.9 1019144
9 мая, вс
вс900:00+2зсз36925 0.0 102190
03:00+2з36945 0.0 1022112
06:00+1з37952 0.0 1024129
09:00+7зсз46775 0.0 1025494
12:00+11зсз34515 0.0 10251377
15:00+13з24445 0.0 10251921
18:00+14з13445 0.0 10241786
21:00+8вюв33605 0.0 102531
10 мая, пн
пн1000:00+6юв48695 0.0 1026113
03:00+5ююв48715 0.0 1026118
06:00+5ююв35765 0.0 102675
09:00+11ююв47626 0.0 1026339
12:00+16ююв675041 0.0 10261253
15:00+17ююв67488 0.0 10251481
18:00+17юв575958 0.0 10241221
21:00+11юв49797 0.0 1025141
11 мая, вт
вт1100:00+8юв4118388 0.0 1025186
03:00+7юв411835 0.0 1025199
06:00+6юв410860 0.0 1025175
09:00+11вюв59630 0.0 1024444
12:00+16вюв57480 0.0 10231011
15:00+18в56440 0.0 10211290
18:00+17в57600 0.0 10201181
21:00+12в48810 0.0 1019114
12 мая, ср
ср1200:00+11вюв513890 0.0 1019285
03:00+10вюв512967 0.0 1018400
06:00+7вюв399720 0.0 1018229
09:00+11вюв587299 0.0 1017618
12:00+13в576329 0.0 10161007
15:00+15в685586 0.0 10131875
18:00+13в686676 0.0 1013940
21:00+9всв4888100 0.0 1012186